Regional Weather Roundup
Issued by NWS

Home | Current Version | Previous Version | Graphics & Text | Print | Product List | Glossary On
Versions: 1 2 3 4 5 6 7 8 9 10 11 12 13 14 15 16 17 18 19 20 21 22 23 24 25 26 27 28 29 30 31 32 33 34 35 36 37 38 39 40 41 42 43 44 45 46 47 48 49 50
000
ASUS45 KCYS 012010
RWRWY

WYOMING REGIONAL WEATHER ROUNDUP
NATIONAL WEATHER SERVICE CHEYENNE WY
200 PM MDT FRI AUG 01 2014

NOTE:  "FAIR" INDICATES FEW OR NO CLOUDS BELOW 12,000 FEET
WITH NO SIGNIFICANT WEATHER AND/OR OBSTRUCTIONS TO VISIBILITY.

WYZ001-012100-
YELLOWSTONE NATIONAL PARK

CITY           SKY/WX    TMP DP  RH WIND       PRES   REMARKS
LK YELLOWSTONE   N/A     69  36  29 SE7       30.42F
W YELLOWSTONE  NOT AVBL

$$
WYZ002>013-054>058-071-098>099-012100-
NORTHERN WYOMING

CITY           SKY/WX    TMP DP  RH WIND       PRES   REMARKS
JACKSON        SUNNY     73  39  29 SW5       30.31F
CODY           MOSUNNY  N/A N/A N/A NE6       30.22S
GREYBULL       SUNNY     90  37  15 CALM      30.12F
WORLAND        SUNNY     88  38  17 VRB3      30.14F
SHERIDAN       MOSUNNY   91  40  16 N9        30.16S
BUFFALO        MOSUNNY   84  35  17 N10G18    30.24R
GILLETTE       MOSUNNY   88  39  17 NW13      30.16F
HULETT         FAIR      88  41  19 MISG      30.16
NEWCASTLE      FAIR      88  32  13 W6        30.16

$$
WYZ014>020-022>026-101>103-012100-
CENTRAL WYOMING

CITY           SKY/WX    TMP DP  RH WIND       PRES   REMARKS
BIG PINEY      MOSUNNY   77  34  21 W6        30.35F
PINEDALE       PTCLDY    72  30  21 N5        30.35F
DUBOIS         FAIR      72  32  23 S8G18     30.37R
LANDER         MOSUNNY   85  34  16 VRB3      30.25F
RIVERTON       SUNNY     83  36  18 E8        30.25F
CASPER         MOSUNNY   86  29  12 SE6       30.22F
DOUGLAS        MOSUNNY   86  36  16 MISG      30.21F

$$
WYZ021-027>030-104>119-012100-
SOUTHERN WYOMING

CITY           SKY/WX    TMP DP  RH WIND       PRES   REMARKS
EVANSTON       SUNNY     80  32  17 E8        30.34F
KEMMERER       CLEAR     77  28  16 SE10G16   30.37F
FORT BRIDGER   FAIR      78  33  19 CALM      30.37F
ROCK SPRINGS   SUNNY     82  30  15 NE12G20   30.31F
DIXON          FAIR      82  28  13 S6        30.29F
RAWLINS        SUNNY     81  25  12 NE14G22   30.32F
SARATOGA       FAIR      77  32  19 W5        30.33F
LARAMIE        SUNNY     74  38  27 SE15      30.37S
CHEYENNE       MOSUNNY   76  42  29 SW10G20   30.31F
TORRINGTON     SUNNY     88  32  13 VRB6      30.17F
PINE BLUFFS    MOCLDY    79  41  25 SW7       30.26F

$$


USA.gov is the U.S. government's official web portal to all federal, state and local government web resources and services.